Regional Weather Roundup
Issued by NWS Portland, ME

Home | Current Version | Previous Version | Text Only | Print | Product List | Glossary On
Versions: 1 2 3 4 5 6 7 8 9 10 11 12 13 14 15 16 17 18 19 20 21 22 23 24 25 26 27 28 29 30 31 32 33 34 35 36 37 38 39 40 41 42 43 44 45 46 47 48 49 50
000
ASUS41 KGYX 190210
RWRGYX
WEATHER ROUNDUP FOR MAINE AND NEW HAMPSHIRE
NATIONAL WEATHER SERVICE GRAY ME
900 PM EST THU DEC 18 2014

MEZ002-005-006-010-012-015-018-020-021-024-026-027-029-190300-
MAINE

CITY           SKY/WX    TMP DP  RH WIND       PRES   REMARKS
PORTLAND       PTCLDY    34  26  72 NW5       29.81R
SANFORD        MOCLDY    34  21  60 W16       29.80S
BAR HARBOR     CLOUDY    30  28  93 NW9       29.70S
WISCASSET      CLEAR     33  25  72 W5        29.79R
ROCKLAND       PTCLDY    34  25  69 W15       29.73R
FRYEBURG       CLOUDY    33  23  66 CALM      29.79R
LEWISTONAUBURN CLOUDY    34  25  69 NW12      29.78R
AUGUSTA        PTCLDY    31  23  72 W10       29.76S
WATERVILLE     CLEAR     32  21  64 W7        29.72S
BANGOR         CLOUDY    31  25  78 NW9       29.72R
GREENVILLE       N/A     25  20  81 N21G32    29.64R WCI  11
MILLINOCKET    CLOUDY    28  23  81 NW12      29.68S WCI  18
HOULTON        CLOUDY    27  22  81 NW8G18    29.62R
PRESQUE ISLE   CLOUDY    27  19  74 NW17      29.64R WCI  14
FRENCHVILLE    LGT SNOW  22  20  92 N23G30    29.62S FOG     WCI   6
CARIBOU        LGT SNOW  25  21  85 NW16G25   29.63R FOG     WCI  12
$$

NHZ002-005-008-009-011-012-014-190300-
NEW HAMPSHIRE

CITY           SKY/WX    TMP DP  RH WIND       PRES   REMARKS
PORTSMOUTH     MOCLDY    35  25  65 W12G22    29.82S
ROCHESTER      MOCLDY    34  24  67 W8        29.81S
NASHUA         CLOUDY    37  27  68 NW12      29.86S
MANCHESTER     CLOUDY    37  26  64 NW8       29.83F
CONCORD        CLOUDY    34  25  69 NW6       29.84F
LACONIA        CLOUDY    32  25  74 W7        29.81R
PLYMOUTH       LGT SNOW  31  30  96 W10       29.83S
BERLIN         CLOUDY    28  23  81 VRB5      29.80R
WHITEFIELD     LGT SNOW  29  26  89 W6        29.83R FOG
JAFFREY        CLOUDY    33  25  72 VRB5      29.83S
KEENE          CLOUDY    36  27  69 N7        29.86S
LEBANON        CLOUDY    33  24  69 NW8       29.86S
MT WASHINGTON  FOG        7   7 100 NW54        N/A  VSB 0   WCI -22
$$

VTZ005-007-008-190300-
VERMONT

CITY           SKY/WX    TMP DP  RH WIND       PRES   REMARKS
ST JOHNSBURY     N/A     30  25  81 MISG      29.85R
MONTPELIER     CLOUDY    27  23  85 NW12G21   29.89S WCI  17
BURLINGTON     FLURRIES  31  23  72 NW9       29.93S
$$

MAZ007-012-024-CTZ003-RIZ002-NYZ038-NYZ072-190300-
SOUTHERN NEW ENGLAND AND NY

CITY           SKY/WX    TMP DP  RH WIND       PRES   REMARKS
BOSTON         MOCLDY    39  28  64 NW10      29.85F
WORCESTER      CLOUDY    33  26  75 NW10      29.83F
NANTUCKET      CLEAR     38  28  67 W10       29.85R
PROVIDENCE     PTCLDY    36  26  67 W3        29.89R
HARTFORD       CLOUDY    37  25  61 NW8G17    29.91R
ALBANY         CLOUDY    33  26  75 NW16G24   29.96F
NEW YORK CITY  PTCLDY    38  27  64 NW14      29.96F
$$

ANZ081-ANZ082-ANZ150-NHZ014-MEZ023>029-190300-
COASTAL MARINE OBSERVATIONS

STATION/POSITION TIME  TEMP    WIND        PRES    WAVE
                       AIR SEA DIR/SP/G            HT/PER
                 (UTC) (F)     (DEG/KT/KT) (MB)    (FT/S)
MOUNT DESERT ROC 0200   35                 1005.1R
MATINICUS ROCK   0200          300/ 29/ 32 1006.3R
PORTLAND WX BUOY 0150   37 44  330/ 14/ 16 1008.7R   2/12
WELLS            0100   37 41  310/  7/ 11 1008.6R
ISLE OF SHOALS   0200   37     290/ 25/ 29 1008.4F
JEFFREYS LEDGE   0121      49                N/A     5/ 5
CASHES LEDGE BUO 0150   39 48  310/ 21/ 25 1006.9R   6/ 6
$$

.............KEY..............
   WCI - WIND CHILL
   TC  - TEMPERATURE IN CELSIUS
   VSB - VISIBILITY IN MILES
   HX  - HEAT INDEX
   FAIR- INDICATES FEW OR NO CLOUDS BELOW 12,000 FT, WITH NO
         SIGNIFICANT WEATHER AND/OR OBSTRUCTIONS TO VISIBILITY.




USA.gov is the U.S. government's official web portal to all federal, state and local government web resources and services.